Regional Weather Roundup
Issued by NWS

Home | Current Version | Previous Version | Text Only | Print | Product List | Glossary Off
Versions: 1 2 3 4 5 6 7 8 9 10 11 12 13 14 15 16 17 18 19 20 21 22 23 24 25 26 27 28 29 30 31 32 33 34 35 36 37 38 39 40 41 42 43 44 45 46 47 48 49 50

000
ASUS45 KBOU 060907
RWRCO

WEATHER ROUNDUP FOR COLORADO
NATIONAL WEATHER SERVICE DENVER/BOULDER CO
300 AM MDT WED MAY 06 2015

NOTE: "FAIR" INDICATES FEW OR NO CLOUDS BELOW 12000 FEET WITH NO
SIGNIFICANT WEATHER AND/OR OBSTRUCTIONS TO VISIBILITY.

COZ001>005-013-030-031-061000-
...NORTHWEST COLORADO...

CITY           SKY/WX    TMP DP  RH WIND       PRES   REMARKS
CRAIG          CLOUDY    50  46  86 W14       29.80F
HAYDEN         CLOUDY    48  43  81 W10       29.80S
MEEKER         LGT RAIN  47  45  93 CALM      29.82F
MOUNT WERNER   NOT AVBL
STEAMBOAT SPGS CLOUDY    44  42  95 E5        29.80F
WALDEN         CLOUDY    37  36  93 W3        29.82S
$$

COZ006>008-011-061000-
...WEST CENTRAL VALLEYS...

CITY           SKY/WX    TMP DP  RH WIND       PRES   REMARKS
GRAND JUNCTION RAIN      51  51 100 N3        29.80F FOG
MONTROSE       CLOUDY    50  47  89 E3        29.85F
EAGLE          CLOUDY    43  43 100 E6        29.86F
RIFLE          LGT RAIN  49  47  93 E3        29.81F
DELTA          CLOUDY    54  51  92 CALM      29.82F
NUCLA          CLOUDY    50  45  81 SW5       29.90S
$$

COZ017>023-064>068-061000-
...SOUTHWEST COLORADO...

CITY           SKY/WX    TMP DP  RH WIND       PRES   REMARKS
DURANGO        CLOUDY    46  45  96 SW7       29.91F
CORTEZ         LGT RAIN  49  47  93 SW12      29.90S
PAGOSA SPRINGS CLOUDY    44  44  98 SW5       29.94F
TELLURIDE      LGT RAIN  39  38  95 CALM      29.98S
WOLF CREEK PAS NOT AVBL
$$

COZ009-010-012-014-032>034-037-058>063-061000-
...CENTRAL COLORADO...

CITY           SKY/WX    TMP DP  RH WIND       PRES   REMARKS
ASPEN          LGT RAIN N/A N/A N/A CALM      29.87F
BUENA VISTA    NOT AVBL
COPPER MTN     CLOUDY    34  30  86 W8G16     29.97S WCI  27
BERTHOUD PASS  SNOW      28  19  69 NW21G31   29.96F VSB 1/4 WCI  15
COTTONWOOD PAS CLOUDY    39  36  87 CALM      29.89F
GUNNISON       CLOUDY    43  37  81 CALM      29.90F
KREMMLING      CLOUDY    39  34  81 SW12      29.84F
LEADVILLE      LGT RAIN  35  33  92 N9        29.88F WCI  28
MONARCH PASS   CLOUDY    30  28  93 MISG      30.06F
SALIDA         CLOUDY    46  41  80 S9        29.88F
SUNLIGHT       LGT SNOW  34  34 100 CALM      29.98F VSB 3/4
WILKERSON PASS SNOW      32  32 100 W7        29.93F VSB 1/2 WCI  26
$$

COZ069>075-061000-
...SAN LUIS VALLEY/SANGRE DE CRISTO MOUNTAINS...

CITY           SKY/WX    TMP DP  RH WIND       PRES   REMARKS
ALAMOSA        CLOUDY    43  39  86 S5        29.86F
LA VETA PASS   DRIZZLE  N/A N/A N/A MISG      29.88F
SAGUACHE       DRIZZLE   41  41 100 CALM      29.88F
$$

COZ035-036-038>040-061000-
...NORTHERN COLORADO FRONT RANGE...

CITY           SKY/WX    TMP DP  RH WIND       PRES   REMARKS
DENVER INTL AP LGT RAIN  49  47  93 W13       29.71F FOG
DMNS CITY PARK   N/A     48  47  95 W2        29.72S
AURORA         CLOUDY    47  47 100 W3        29.73F
FRONT RANGE AP DRIZZLE   50  50 100 W9        29.72F
ERIE MUNI ARPT CLOUDY    49  48  97 CALM      29.71F
BOULDER MUN AP CLOUDY    48  46  93 SW5       29.71F
CENTENNIAL     MOCLDY    47  46  97 CALM      29.73F
BROOMFIELD     CLOUDY    46  46 100 W6        29.74S FOG
FORT COLLINS   CLOUDY    50  45  81 N6        29.72S
LONGMONT       CLOUDY    50  48  93 CALM      29.73S
$$

COZ041-046-047-076>085-087-088-061000-
...PIKES PEAK/PALMER DIVIDE AND SOUTHERN FOOTHILLS...

CITY           SKY/WX    TMP DP  RH WIND       PRES   REMARKS
COLO. SPRINGS  CLOUDY    46  45  96 S5        29.76F FOG
A. F. ACADEMY  MOCLDY    44  44 100 SE3       29.75F
ELLICOTT         N/A    N/A N/A N/A S3        29.74F
FALCON         CLOUDY    44  43  97 S6        29.78F
FORT CARSON    MOCLDY    46  46 100 S7        29.73F
LIMON          LGT RAIN  49  47  93 S7        29.72F
MONUMENT HILL  CLOUDY    41  39  93 SW6       29.75F
TRINIDAD       CLOUDY    47  45  93 W5        29.74F
$$

COZ042>045-048>051-090-091-061000-
...NORTHEAST COLORADO...

CITY           SKY/WX    TMP DP  RH WIND       PRES   REMARKS
GREELEY ARPT     N/A    N/A N/A N/A MISG        N/A
AKRON          CLOUDY    51  51 100 S12       29.65F FOG
BURLINGTON     PTCLDY    50  48  93 S8        29.71F
WRAY           PTCLDY   N/A N/A N/A SE6       29.69F
STERLING       CLOUDY    52  50  93 SE7       29.65F
HOLYOKE        NOT AVBL
FORT MORGAN    DRIZZLE   51  49  95 NE9       29.64F
$$

COZ086-089-092>099-061000-
...SOUTHEAST COLORADO...

CITY           SKY/WX    TMP DP  RH WIND       PRES   REMARKS
PUEBLO         CLOUDY    50  49  96 NW5       29.71F
LA JUNTA       CLOUDY    52  50  93 W3        29.70F
LAMAR          CLOUDY    51  49  92 SE5       29.69F
SPRINGFIELD      N/A     46  45  96 S5        29.71F
$$



USA.gov is the U.S. government's official web portal to all federal, state and local government web resources and services.